Simultaneous Nadir Overpasses (SNOs) Predictions

Prediction of SNOs between AQUA and METOP-C Satellite Orbit:

Table of predicted SNOs for the next 14.0 days since TLE Epoch: 8/16/2019
Index Date (AQUA) Time (AQUA) Lat,Lon (AQUA) SZA (AQUA ) Date (METOP-C) Time (METOP-C) Lat,Lon (METOP-C) SZA (METOP-C ) Distance(km) Time Diff (sec)
1 08/18/2019 23:51:14 -73.73, -3.38 119.18 08/18/2019 23:50:41 -73.74, -3.48 119.16 3.55 33
2 08/19/2019 00:40:44 73.84, 164.01 60.95 08/19/2019 00:41:19 73.86, 164.12 60.96 3.70 35
3 08/21/2019 19:25:29 -73.75, 63.01 118.24 08/21/2019 19:25:02 -73.76, 62.98 118.22 1.56 27
4 08/21/2019 20:14:58 73.81,-129.49 61.84 08/21/2019 20:15:41 73.82,-129.55 61.85 2.12 43
5 08/24/2019 14:59:45 -73.78, 129.39 117.27 08/24/2019 14:59:24 -73.79, 129.44 117.25 2.03 21
6 08/24/2019 15:49:14 73.84, -63.11 62.82 08/24/2019 15:50:03 73.84, -63.10 62.81 0.23 49
7 08/27/2019 09:44:25 73.24, 29.32 63.12 08/27/2019 09:43:17 73.18, 27.13 63.15 70.83 68
8 08/27/2019 10:34:00 -73.75,-164.11 116.33 08/27/2019 10:33:47 -73.76,-164.21 116.31 3.69 13
9 08/27/2019 11:23:30 73.86, 3.27 63.81 08/27/2019 11:24:25 73.86, 3.34 63.79 2.27 55
10 08/30/2019 05:18:44 73.47, 95.27 64.36 08/30/2019 05:17:33 73.44, 94.13 64.38 36.18 71
11 08/30/2019 06:08:15 -73.77, -97.72 115.32 08/30/2019 06:08:08 -73.79, -97.75 115.30 2.06 7
12 08/30/2019 06:57:44 73.83, 69.77 64.77 08/30/2019 06:58:47 73.82, 69.67 64.75 3.32 63




NCC Satellite Simultaneous Nadir Overpasses (SNOs) Prediction Service
